Content
SEND FEEDBACK

Daily
Averages
Monthly
Summary
United States of America

SIGOURNEY, IOWA


Home > North America > United States > Iowa
Elevation: 210 meters     Latitude: 41 19N     Longitude: 092 11W

WEATHER
 
SELECT A DAY
Number of Records: 376,103;   Date Range: 1/1/95 - 9/29/14
 
SHARE

PRINT THIS DATA

[ ← Previous Day ]
WEATHER ALMANAC - 31 JANUARY, 2013
[ Next Day → ]
[ °F ]   °C
Weather ElementAverageHighLow
Temperature-13.7 °C-7.8 °C (12:53 am)-17.2 °C (11:53 pm)
Dewpoint-18.2 °C-12.2 °C (12:53 am)-22.2 °C (11:53 pm)
Humidity70 %79 % (7:27 am)66 % (5:14 pm)
Barometer1020.3 hPa1029.8 hPa (11:53 pm)1011.5 hPa (2:04 am)
Wind Speed28 km/h38.9 km/h (11:53 am)
Wind Gust53.8 km/h (4:13 pm)
Weather ElementAverage
Visibility9.8 km
Wind DirectionWNW (299.4 °)

Weather ElementTotal
Precipitation---
Heating Degree Days30.8 (Base 18.3)
Averaged from 49 records on 31 January, 2013
WEATHER CONDITIONS BREAKOUT
WIND DIRECTION BREAKOUT
WEATHER BY HOUR - 31 JANUARY, 2013
[ °F ]   °C
Local TimeTemperatureDewpointHumidityBarometerVisibilityWind DirectionWind SpeedGust SpeedPrecipitationEventsConditions
12:53 AM-7.8 °C-12.2 °C71 %1012.2 hPa16.1 kmWNW (300°)24.1 km/h0 mmOvercast
1:53 AM-9.4 °C-13.9 °C70 %1012.9 hPa16.1 kmWNW (290°)20.4 km/hMostly Cloudy
2:04 AM-10 °C-14 °C73 %1011.5 hPa16.1 kmWNW (290°)22.2 km/h33.3 km/hScattered Clouds
2:53 AM-10.6 °C-14.4 °C74 %1013.2 hPa16.1 kmWNW (290°)20.4 km/hClear
3:53 AM-11.1 °C-15 °C73 %1013.2 hPa16.1 kmWest (280°)18.5 km/hClear
4:53 AM-12.2 °C-15.6 °C76 %1013.9 hPa16.1 kmWNW (290°)25.9 km/hClear
5:53 AM-12.8 °C-16.7 °C73 %1014.2 hPa16.1 kmWNW (300°)22.2 km/hClear
6:16 AM-13 °C-17 °C73 %1012.9 hPa16.1 kmWNW (290°)24.1 km/hMostly Cloudy
6:53 AM-13.3 °C-16.7 °C76 %1015.2 hPa16.1 kmWNW (300°)20.4 km/hOvercast
7:27 AM-14 °C-17 °C79 %1014.2 hPa16.1 kmNW (310°)27.8 km/hOvercast
7:53 AM-14.4 °C-18.3 °C73 %1016.3 hPa16.1 kmNW (310°)31.5 km/hOvercast
8:53 AM-14.4 °C-19.4 °C67 %1017.6 hPa16.1 kmWNW (300°)31.5 km/h42.6 km/hOvercast
9:53 AM-13.9 °C-18.3 °C70 %1018.6 hPa16.1 kmNW (310°)27.8 km/hOvercast
10:10 AM-14 °C-18 °C72 %1017.3 hPa9.7 kmNW (310°)25.9 km/hHaze
10:53 AM-13.9 °C-18.9 °C67 %1020 hPa14.5 kmWNW (300°)31.5 km/hOvercast
11:23 AM-14 °C-19 °C67 %1018.6 hPa16.1 kmWNW (300°)31.5 km/hOvercast
11:53 AM-13.9 °C-18.9 °C67 %1020.7 hPa9.7 kmWNW (300°)38.9 km/h46.3 km/hHaze
12:14 PM-13 °C-18 °C67 %1019 hPa4 kmNW (310°)33.3 km/h48.1 km/h0 mmSnowLight Snow
12:29 PM-13 °C-18 °C67 %1019 hPa2.9 kmNW (310°)35.2 km/h44.4 km/h0 mmSnowLight Snow
12:43 PM-13 °C-17 °C73 %1019 hPa3.2 kmNW (310°)25.9 km/h42.6 km/h0 mmSnowLight Snow
12:53 PM-13.3 °C-17.2 °C73 %1021 hPa4.8 kmNW (310°)24.1 km/h38.9 km/h0 mmSnowLight Snow
1:03 PM-13 °C-18 °C67 %1019.3 hPa4 kmWNW (300°)27.8 km/h37 km/h0 mmSnowLight Snow
1:12 PM-13 °C-17 °C73 %1019.3 hPa1.9 kmWNW (300°)29.6 km/h0 mmSnowLight Snow
1:34 PM-13 °C-18 °C67 %1019.6 hPa6.4 kmWNW (300°)35.2 km/h46.3 km/h0 mmHaze
2:05 PM-13 °C-18 °C67 %1019.6 hPa4 kmWNW (300°)33.3 km/h46.3 km/h0 mmSnowLight Snow
2:21 PM-13 °C-17 °C73 %1020 hPa2.9 kmWNW (290°)31.5 km/h42.6 km/h0 mmSnowLight Snow
2:26 PM-13 °C-18 °C67 %1020 hPa4.8 kmWNW (290°)31.5 km/h40.7 km/h0 mmSnowLight Snow
2:49 PM-13 °C-18 °C67 %1020.7 hPa4 kmWNW (300°)37 km/h51.8 km/h0 mmHaze
2:53 PM-13.3 °C-17.8 °C70 %1022.4 hPa3.2 kmWNW (300°)35.2 km/h51.8 km/h0 mmSnowLight Snow
3:02 PM-13 °C-18 °C67 %1021 hPa1.9 kmWNW (300°)29.6 km/h50.1 km/h0 mmSnowLight Snow
3:17 PM-14 °C-17 °C79 %1021.3 hPa0.8 kmNW (310°)31.5 km/h0 mmSnowSnow
3:24 PM-14 °C-17 °C79 %1021.3 hPa0.3 kmNW (310°)33.3 km/h42.6 km/h0 mmSnowHeavy Snow
3:39 PM-14 °C-18 °C72 %1021.3 hPa1.6 kmNW (310°)35.2 km/h51.8 km/h0 mmSnowLight Snow
3:53 PM-13.9 °C-18.9 °C67 %1023.4 hPa2.9 kmWNW (290°)37 km/h50.1 km/h0 mmHaze
4:03 PM-14 °C-19 °C67 %1022 hPa3.2 kmWNW (300°)31.5 km/h46.3 km/h0 mmSnowLight Snow
4:13 PM-14 °C-19 °C67 %1022 hPa2.4 kmWNW (290°)31.5 km/h53.8 km/h0 mmSnowLight Snow
4:53 PM-14.4 °C-18.9 °C69 %1024.4 hPa3.2 kmNW (310°)33.3 km/h44.4 km/h0 mmHaze
5:09 PM-15 °C-19 °C72 %1022.7 hPa2.9 kmWNW (300°)31.5 km/h46.3 km/h0 mmSnowLight Snow
5:14 PM-15 °C-20 °C66 %1023 hPa4.8 kmNW (310°)35.2 km/h48.1 km/h0 mmHaze
5:35 PM-16 °C-21 °C66 %1023.4 hPa11.3 kmNW (310°)27.8 km/h42.6 km/h0 mmScattered Clouds
5:44 PM-16 °C-21 °C66 %1023.4 hPa12.9 kmWNW (300°)24.1 km/h42.6 km/h0 mmMostly Cloudy
5:53 PM-15.6 °C-20 °C70 %1025.7 hPa16.1 kmWNW (300°)20.4 km/h0 mmMostly Cloudy
6:53 PM-15.6 °C-20.6 °C66 %1026.8 hPa16.1 kmWNW (290°)22.2 km/hMostly Cloudy
7:53 PM-16.1 °C-20 °C73 %1027.1 hPa16.1 kmWNW (290°)22.2 km/hOvercast
8:27 PM-16 °C-21 °C66 %1025.4 hPa16.1 kmWNW (290°)18.5 km/hPartly Cloudy
8:53 PM-16.1 °C-21.1 °C66 %1027.8 hPa16.1 kmWNW (290°)20.4 km/hClear
9:53 PM-16.7 °C-21.1 °C69 %1028.4 hPa16.1 kmWNW (290°)24.1 km/hClear
10:53 PM-16.7 °C-21.7 °C66 %1029.1 hPa16.1 kmWNW (300°)22.2 km/hClear
11:53 PM-17.2 °C-22.2 °C66 %1029.8 hPa16.1 kmWNW (290°)18.5 km/hClear
Hourly data recorded from KOTM, located 0 kilometers away from Sigourney, Iowa







STORIES FROM OUR PARTNERS